Location: Unspecified
(0.0000°N, 0.0000°E)
Time: 14:14:40
(UTC+00:00)

Vanguard 1 Rocket - Pass Details

Date: 24 March 2018
Orbit: 654 x 4223 km, 34.3° (Epoch: 21 April)

Event Time Altitude Azimuth Distance (km) Brightness Sun altitude
Rises 22:17:13 0° 312° (NW) 5,531 11.7 -62.7°
Reaches altitude 10° 22:20:09 10° 314° (NW) 4,889 11.3 -63.4°
Enters shadow 22:24:46 29° 318° (NW) 4,059 10.6 -64.6°
Maximum altitude 22:36:03 77° 40° (NE) 3,531 - -67.4°
Drops below altitude 10° 23:02:10 10° 123° (ESE) 7,425 - -73.9°
Exits shadow 23:06:14 - 124° (SE) 8,102 12.1 -74.9°
Sets 23:07:56 0° 124° (SE) 8,380 12.2 -75.3°
